Tracking 28790 objects as of 19-Apr-2024
HD Live streaming from Space Station
objects crossing your sky now

OBJECT D

Track OBJECT D now!
10-day predictions
OBJECT D is classified as:


NORAD ID: 56746
Int'l Code: 2023-072D
Perigee: 525.7 km
Apogee: 535.1 km
Inclination: 97.6 °
Period: 95.1 minutes
Semi major axis: 6901 km
RCS: Unknown
Launch date: May 25, 2023
Source: South Korea (SKOR)
Launch site: Naro Space Center, South Korea (NSC)

Uplink (MHz):
Downlink (MHz): 436950.
Beacon (MHz):
Mode: 4800bps MSK_AX.100_Mode 5
Call sign:
Status: Inactive

Your satellite tracking list
Your tracking list is empty




NASA's NSSDC Master Catalog

Two Line Element Set (TLE):
1 56746U 23072D   24110.49356214  .00022008  00000-0  12041-2 0  9996
2 56746  97.5505 298.2217 0006832 246.7560 113.2952 15.14250971 49822
Source of the keplerian elements: AFSPC